When you browse on this site, cookies collect data to enhance your experience and personalize the content and advertising you see.
Visit our Privacy Policy to learn more. By continuing to use the site, you agree to this use of cookies and data.
  • In Spain
  • List of Countries
  • For 7 days
  • Water Temperature
  • Weather Map
  • Weather Widgets
  • user-avatar
    Login

    Hourly Weather Timiryazevo

    Today, 24 August, Saturday

    Time Temperature Precipitation Wind Pressure Humidity
    00:00 +14°C° 0 mm 1 mps 751 mmHg 77%
    01:00 +14°C° 0 mm 1 mps 751 mmHg 79%
    02:00 +13°C° 0 mm 1 mps 752 mmHg 82%
    03:00 +13°C° 0 mm 1 mps 752 mmHg 84%
    04:00 +13°C° 0 mm 1 mps 751 mmHg 84%
    05:00 +13°C° 0 mm 1 mps 751 mmHg 84%
    06:00 +13°C° 0 mm 1 mps 751 mmHg 84%
    07:00 +15°C° 0 mm 1 mps 751 mmHg 80%
    08:00 +16°C° 0 mm 1 mps 751 mmHg 75%
    09:00 +18°C° 0 mm 2 mps 751 mmHg 71%
    10:00 +19°C° 0 mm 2 mps 751 mmHg 67%
    11:00 +20°C° 0 mm 3 mps 751 mmHg 63%
    12:00 +22°C° 0 mm 3 mps 751 mmHg 59%
    13:00 +22°C° 0 mm 3 mps 750 mmHg 59%
    14:00 +22°C° 0 mm 3 mps 750 mmHg 58%
    15:00 +22°C° 0 mm 4 mps 749 mmHg 57%
    16:00 +22°C° 0 mm 3 mps 749 mmHg 61%
    17:00 +21°C° 0 mm 3 mps 749 mmHg 66%
    18:00 +21°C° 0 mm 3 mps 748 mmHg 71%
    19:00 +19°C° 0 mm 3 mps 748 mmHg 74%
    20:00 +18°C° 0 mm 3 mps 748 mmHg 78%
    21:00 +16°C° 0 mm 3 mps 748 mmHg 82%
    22:00 +16°C° 0 mm 3 mps 748 mmHg 84%
    23:00 +16°C° 0 mm 3 mps 748 mmHg 86%

    Tomorrow, 25 August, Sunday

    Time Temperature Precipitation Wind Pressure Humidity
    00:00 +14°C° 0 mm 3 mps 748 mmHg 88%
    01:00 +14°C° 0 mm 3 mps 748 mmHg 90%
    02:00 +13°C° 0 mm 3 mps 748 mmHg 93%
    03:00 +13°C° 0 mm 3 mps 748 mmHg 95%
    04:00 +13°C° 0 mm 3 mps 749 mmHg 95%
    05:00 +12°C° 0 mm 3 mps 749 mmHg 95%
    06:00 +12°C° 0 mm 3 mps 749 mmHg 95%
    07:00 +13°C° 0 mm 3 mps 749 mmHg 88%
    08:00 +15°C° 0 mm 4 mps 749 mmHg 81%
    09:00 +17°C° 0 mm 4 mps 750 mmHg 75%
    10:00 +18°C° 0 mm 4 mps 750 mmHg 70%
    11:00 +19°C° 0 mm 4 mps 750 mmHg 66%
    12:00 +20°C° 0 mm 4 mps 750 mmHg 62%
    13:00 +20°C° 0 mm 4 mps 750 mmHg 61%
    14:00 +20°C° 0 mm 4 mps 751 mmHg 61%
    15:00 +21°C° 0 mm 4 mps 751 mmHg 60%
    16:00 +20°C° 0 mm 3 mps 751 mmHg 63%
    17:00 +20°C° 0 mm 3 mps 751 mmHg 67%
    18:00 +19°C° 0 mm 2 mps 751 mmHg 70%
    19:00 +18°C° 0 mm 2 mps 751 mmHg 74%
    20:00 +16°C° 0 mm 2 mps 752 mmHg 78%
    21:00 +14°C° 0 mm 2 mps 752 mmHg 82%
    22:00 +14°C° 0 mm 1 mps 752 mmHg 84%
    23:00 +13°C° 0 mm 1 mps 752 mmHg 86%

    Day after tomorrow, 26 August, Monday

    Time Temperature Precipitation Wind Pressure Humidity
    00:00 +13°C° 0 mm 1 mps 752 mmHg 89%
    01:00 +12°C° 0 mm 1 mps 753 mmHg 89%
    02:00 +12°C° 0 mm 1 mps 753 mmHg 90%
    03:00 +11°C° 0 mm 0 mps 753 mmHg 90%
    04:00 +12°C° 0 mm 1 mps 753 mmHg 91%
    05:00 +12°C° 0 mm 1 mps 753 mmHg 91%
    06:00 +12°C° 0 mm 1 mps 753 mmHg 92%
    07:00 +13°C° 0 mm 1 mps 753 mmHg 86%
    08:00 +15°C° 0 mm 1 mps 753 mmHg 80%
    09:00 +18°C° 0 mm 1 mps 753 mmHg 74%
    10:00 +19°C° 0 mm 1 mps 753 mmHg 70%
    11:00 +20°C° 0 mm 1 mps 753 mmHg 66%
    12:00 +21°C° 0 mm 1 mps 752 mmHg 61%
    13:00 +20°C° 0 mm 2 mps 752 mmHg 61%
    14:00 +21°C° 0 mm 2 mps 752 mmHg 61%
    15:00 +21°C° 0 mm 3 mps 751 mmHg 60%
    16:00 +21°C° 0 mm 3 mps 751 mmHg 64%
    17:00 +20°C° 0 mm 2 mps 750 mmHg 68%
    18:00 +20°C° 0 mm 2 mps 750 mmHg 72%
    19:00 +18°C° 0 mm 2 mps 750 mmHg 75%
    20:00 +17°C° 0 mm 2 mps 749 mmHg 78%
    21:00 +15°C° 0 mm 2 mps 749 mmHg 81%
    22:00 +14°C° 0 mm 3 mps 749 mmHg 83%
    23:00 +13°C° 0 mm 3 mps 749 mmHg 84%

    27 August, Tuesday

    Time Temperature Precipitation Wind Pressure Humidity
    00:00 +13°C° 0 mm 3 mps 749 mmHg 86%
    01:00 +13°C° 0 mm 3 mps 748 mmHg 86%
    02:00 +13°C° 0 mm 3 mps 748 mmHg 86%
    03:00 +13°C° 0 mm 4 mps 747 mmHg 86%
    04:00 +13°C° 0 mm 4 mps 747 mmHg 87%
    05:00 +13°C° 0 mm 4 mps 747 mmHg 88%
    06:00 +13°C° 0 mm 4 mps 746 mmHg 88%
    07:00 +14°C° 0 mm 4 mps 746 mmHg 85%
    08:00 +15°C° 0 mm 4 mps 746 mmHg 81%
    09:00 +17°C° 0 mm 5 mps 745 mmHg 78%
    10:00 +19°C° 0.5 mm 5 mps 745 mmHg 76%
    11:00 +20°C° 0.5 mm 5 mps 745 mmHg 74%
    12:00 +21°C° 0.5 mm 5 mps 744 mmHg 72%
    13:00 +21°C° 0.9 mm 6 mps 744 mmHg 73%
    14:00 +21°C° 0.9 mm 6 mps 744 mmHg 73%
    15:00 +20°C° 0.9 mm 6 mps 743 mmHg 73%
    16:00 +20°C° 0.1 mm 6 mps 743 mmHg 73%
    17:00 +19°C° 0.1 mm 5 mps 743 mmHg 72%
    18:00 +17°C° 0.1 mm 5 mps 743 mmHg 72%
    19:00 +15°C° 0 mm 5 mps 744 mmHg 74%
    20:00 +14°C° 0 mm 5 mps 744 mmHg 76%
    21:00 +12°C° 0 mm 5 mps 745 mmHg 79%
    22:00 +10°C° 0 mm 5 mps 746 mmHg 79%
    23:00 +8°C° 0 mm 5 mps 746 mmHg 78%

    28 August, Wednesday

    Time Temperature Precipitation Wind Pressure Humidity
    00:00 +7°C° 0 mm 4 mps 747 mmHg 78%
    01:00 +6°C° 0 mm 4 mps 747 mmHg 78%
    02:00 +6°C° 0 mm 4 mps 747 mmHg 77%
    03:00 +5°C° 0 mm 4 mps 747 mmHg 77%
    04:00 +5°C° 0 mm 4 mps 747 mmHg 79%
    05:00 +4°C° 0 mm 3 mps 748 mmHg 82%
    06:00 +4°C° 0 mm 3 mps 748 mmHg 84%
    07:00 +5°C° 0 mm 4 mps 748 mmHg 79%
    08:00 +7°C° 0 mm 5 mps 748 mmHg 74%
    09:00 +8°C° 0 mm 6 mps 748 mmHg 69%
    10:00 +9°C° 0 mm 6 mps 748 mmHg 64%
    11:00 +10°C° 0 mm 6 mps 748 mmHg 60%
    12:00 +11°C° 0 mm 7 mps 748 mmHg 55%
    13:00 +11°C° 0 mm 7 mps 748 mmHg 54%
    14:00 +12°C° 0 mm 7 mps 748 mmHg 54%
    15:00 +12°C° 0 mm 7 mps 748 mmHg 53%
    16:00 +11°C° 0 mm 6 mps 748 mmHg 57%
    17:00 +12°C° 0 mm 5 mps 748 mmHg 61%
    18:00 +11°C° 0 mm 4 mps 748 mmHg 65%
    19:00 +10°C° 0 mm 4 mps 749 mmHg 68%
    20:00 +8°C° 0 mm 4 mps 749 mmHg 70%
    21:00 +7°C° 0 mm 3 mps 749 mmHg 73%
    22:00 +7°C° 0 mm 3 mps 749 mmHg 75%
    23:00 +5°C° 0 mm 3 mps 749 mmHg 77%

    29 August, Thursday

    Time Temperature Precipitation Wind Pressure Humidity
    00:00 +5°C° 0 mm 3 mps 750 mmHg 79%
    01:00 +4°C° 0 mm 3 mps 750 mmHg 81%
    02:00 +4°C° 0 mm 3 mps 750 mmHg 82%
    03:00 +3°C° 0 mm 3 mps 750 mmHg 84%
    04:00 +3°C° 0 mm 3 mps 750 mmHg 85%
    05:00 +3°C° 0 mm 3 mps 750 mmHg 86%
    06:00 +3°C° 0 mm 3 mps 750 mmHg 87%
    07:00 +5°C° 0 mm 3 mps 750 mmHg 81%
    08:00 +7°C° 0 mm 4 mps 750 mmHg 75%
    09:00 +9°C° 0 mm 5 mps 750 mmHg 68%
    10:00 +10°C° 0 mm 5 mps 750 mmHg 64%
    11:00 +12°C° 0 mm 5 mps 749 mmHg 61%
    12:00 +13°C° 0 mm 5 mps 749 mmHg 57%
    13:00 +13°C° 0 mm 5 mps 749 mmHg 56%
    14:00 +14°C° 0 mm 6 mps 749 mmHg 56%
    15:00 +14°C° 0 mm 6 mps 748 mmHg 56%
    16:00 +13°C° 0 mm 5 mps 749 mmHg 60%
    17:00 +12°C° 0 mm 5 mps 749 mmHg 64%
    18:00 +11°C° 0 mm 4 mps 749 mmHg 68%
    19:00 +10°C° 0 mm 4 mps 749 mmHg 74%
    20:00 +8°C° 0 mm 3 mps 749 mmHg 79%
    21:00 +7°C° 0 mm 3 mps 749 mmHg 84%
    22:00 +5°C° 0 mm 3 mps 749 mmHg 86%
    23:00 +5°C° 0 mm 3 mps 749 mmHg 88%
    Show more